星链-38370(STARLINK-38370)

导读

STARLINK-38370(NORAD 100519)是SpaceX星链(Starlink)巨型低轨互联网星座成员,属于V2 Mini改进版卫星,搭载相控阵天线,单星下行通信容量达96Gbps。该卫星于2025年由猎鹰9号火箭发射,执行星链Group 6-67批次任务,当前运行在约550公里高度、倾角43°的近地轨道,设计寿命约5年,主要为全球偏远及通信基础设施薄弱区域提供高速低延迟互联网服务,是SpaceX构建万级规模天基通信网络的组成单元。发射任务中猎鹰9号一级助推器B1090-4成功回收,为SpaceX第492次航天发射任务。

基本信息
目录编号:
100519
目录名称:
STARLINK-38370
国际标识:
2026-197T
轨道中心:
EARTH
卫星名称:
星链-38370
卫星全名:
星链-38370(STARLINK-38370)
卫星状态:
在轨 (已飞行10 天)
发射日期:
2026-08-26 UTC
国别 :
美国 (US)
星等 :
--
轨道信息
数据来源 国际轨道数据
星历时间: 2026-09-05T05:27:40+0800
8小时前
查看轨道信息
半长轴: 6702.193km
偏心率: 0.0003502
轨道倾角: 69.997°
近地点辐角 276.368°
升交点赤经 166.218°
平近点角 83.712°
近地点: 321.708km
远地点: 326.404km
周期: 91.009分钟
每日圈数: 15.822584
详细信息
固有亮度:
5
最大亮度:
2.5
卫星平台:
Starlink V1.0
覆盖范围:
全球
运营商:
太空探索技术公司
运营商所在国:
美国
制造商(研发单位):
太空探索技术公司
制造商所在国:
美国
使用方式:
暂无
卫星简介
Starlink 计划是 SpaceX 推出的全球卫星互联网项目,通过发射低轨道卫星,为全球尤其是偏远地区提供高速、低延迟的互联网服务。自 2019 年起,Starlink 已部署数千颗卫星,旨在缩小全球数字鸿沟,推动互联网普及。该项目还为军事、航空等行业提供通信支持,带来广泛经济效益。
2D轨道图
3D轨道图
轨道高度分析图
轨道倾角分析图
轨道综合分析图
查看轨道综合分析图